This is the latest recevied weather packets stored in our database for station/object DB0ROB-10. If no packets are shown the sender has not sent any weather packets the latest 1 day(s).
| Time | Temp. | Humidity | Pressure | Rain* | Wind** | Luminosity | Snow |
|---|---|---|---|---|---|---|---|
| 1778057198 | 17.78° C | 49% | 1007.1 hPa | - | - | - | - |
| 1778056297 | 15° C | 58% | 1007.1 hPa | - | - | - | - |
| 1778055397 | 16.11° C | 54% | 1007 hPa | - | - | - | - |
| 1778054497 | 16.67° C | 49% | 1007.1 hPa | - | - | - | - |
| 1778053604 | 16.67° C | 50% | 1007.1 hPa | - | - | - | - |
| 1778052704 | 15° C | 57% | 1007.2 hPa | - | - | - | - |
| 1778051804 | 15° C | 57% | 1007 hPa | - | - | - | - |
| 1778050904 | 13.89° C | 59% | 1007 hPa | - | - | - | - |
| 1778050004 | 15° C | 55% | 1006.9 hPa | - | - | - | - |
| 1778049104 | 12.78° C | 62% | 1006.9 hPa | - | - | - | - |
| 1778048203 | 12.78° C | 63% | 1007 hPa | - | - | - | - |
| 1778047302 | 11.67° C | 67% | 1007 hPa | - | - | - | - |
| 1778046401 | 11.67° C | 66% | 1007.1 hPa | - | - | - | - |
| 1778045501 | 11.11° C | 68% | 1007.1 hPa | - | - | - | - |
| 1778044600 | 11.11° C | 66% | 1007.1 hPa | - | - | - | - |
| 1778043700 | 10.56° C | 70% | 1007.3 hPa | - | - | - | - |
| 1778042800 | 10° C | 71% | 1007.4 hPa | - | - | - | - |
| 1778040999 | 9.44° C | 73% | 1007.4 hPa | - | - | - | - |
| 1778040099 | 9.44° C | 73% | 1007.4 hPa | - | - | - | - |
| 1778039199 | 9.44° C | 73% | 1007.5 hPa | - | - | - | - |
| 1778038298 | 9.44° C | 73% | 1007.6 hPa | - | - | - | - |
| 1778037398 | 9.44° C | 75% | 1007.8 hPa | - | - | - | - |
| 1778036497 | 9.44° C | 76% | 1007.9 hPa | - | - | - | - |
| 1778034696 | 9.44° C | 76% | 1007.9 hPa | - | - | - | - |
| 1778033796 | 9.44° C | 75% | 1008.1 hPa | - | - | - | - |
* Rain since midnight (hover to see other rain measurements)
** Current wind speed in m/s (hover to see current wind gust speed)